Regional Weather Roundup
Issued by NWS

Home | Current Version | Previous Version | Graphics & Text | Print | Product List | Glossary On
Versions: 1 2 3 4 5 6 7 8 9 10 11 12 13 14 15 16 17 18 19 20 21 22 23 24 25 26 27 28 29 30 31 32 33 34 35 36 37 38 39 40 41 42 43 44 45 46 47 48 49 50
000
ASUS43 KDMX 180806
RWRIA

WEATHER ROUNDUP FOR IOWA
NATIONAL WEATHER SERVICE DES MOINES IA
300 AM CDT WED OCT 18 2017

NOTE: "FAIR" INDICATES FEW OR NO CLOUDS BELOW 12,000 FEET WITH NO
SIGNIFICANT WEATHER AND/OR OBSTRUCTIONS TO VISIBILITY.

* - THESE STATIONS ARE NOT NWS STATIONS...THUS NOT UNDER NWS
QUALITY CONTROL.  THEY ALSO DO NOT REPORT WEATHER SUCH
AS PRECIPITATION OR FOG.

IAZ001>003-012>014-020>022-031>034-043>046-180900-
   NORTHWEST IOWA

CITY           SKY/WX    TMP DP  RH WIND       PRES   REMARKS
CARROLL *      CLEAR     54  50  87 S8        29.94F
CHEROKEE *     CLEAR     43  43 100 S3        29.90F
DENISON *      CLEAR     52  45  76 VRB5      29.95F
LE MARS *      CLEAR     48  45  87 S7        29.88F
ORANGE CITY *  CLEAR     50  46  87 S6        29.88F
SHELDON *      CLEAR     48  45  87 S6        29.87S
SIOUX CITY     CLEAR     44  43  96 E9        29.89F
SPENCER        CLEAR     44  41  89 SE5       29.90F
STORM LAKE *   CLEAR     48  45  87 S10       29.91F
$$

IAZ055>058-069>071-079>083-090>094-180900-
   SOUTHWEST IOWA

CITY           SKY/WX    TMP DP  RH WIND       PRES   REMARKS
ATLANTIC *     CLEAR     48  46  93 S6        29.98S
AUDUBON *      CLEAR     48  45  87 S5        29.97F
CLARINDA *     CLEAR     52  48  87 S8        30.03S
COUNCIL BLFS * CLEAR     57  48  72 S14       29.96S
CRESTON *      CLEAR     50  46  87 S14       30.02F
HARLAN  *      CLEAR     48  46  93 S3        29.99F
LAMONI         CLEAR     55  46  71 S13       30.04F
RED OAK *      CLEAR     48  46  93 S6        29.99S
SHENANDOAH *   CLEAR     54  46  76 S5        30.00S
$$

IAZ047>049-059>061-072>074-084-180900-
   CENTRAL IOWA

CITY           SKY/WX    TMP DP  RH WIND       PRES   REMARKS
AMES           CLEAR     52  48  86 S9        29.99S
ANKENY *       CLEAR     55  46  71 S8        30.01F
BOONE *        CLEAR     54  46  76 S9        29.97F
CHARITON *     CLEAR     54  46  76 S10       30.04S
DES MOINES     CLEAR     57  46  66 S14       30.00F
GRINNELL*      CLEAR     49  44  81 S7        30.04F
KNOXVILLE *    CLEAR     55  45  67 S10       30.02S
MARSHALLTOWN   CLEAR     51  45  79 S8        29.99F
NEWTON *       CLEAR     54  46  76 S10       30.02S
PELLA *        CLEAR     55  45  70 S9        30.04F
PERRY *          N/A     49  47  93 S7        29.97F
$$

IAZ004>006-015-016-023>025-035-036-180900-
   NORTH CENTRAL IOWA

CITY           SKY/WX    TMP DP  RH WIND       PRES   REMARKS
ALGONA *       CLEAR     50  46  87 S13       29.93F
CLARION *      CLEAR     50  48  93 S12       29.95F
ESTHERVILLE    CLEAR     44  43  96 S7        29.90F
FORT DODGE *   CLEAR     52  45  77 S5        29.95F
MASON CITY     CLEAR     46  42  86 S9        29.97F
FOREST CITY *    N/A     48  45  87 S8        29.95S
WEBSTER CITY * CLEAR     50  45  81 S7        29.94F
IOWA FALLS *     N/A     52  46  80 S8        29.99F
$$

IAZ007>011-017>019-026>030-037>042-050>054-066-180900-
   NORTHEAST IOWA

CITY           SKY/WX    TMP DP  RH WIND       PRES   REMARKS
CEDAR RAPIDS   CLEAR     49  44  83 S6        30.05F
CHARLES CITY * CLEAR     50  46  87 S7        29.99S
CLINTON *      CLEAR     48  42  80 S8        30.09F
DECORAH *      CLEAR     55  45  67 S8G15     29.99S
DUBUQUE        CLEAR     46  42  86 S9        30.06F
MONTICELLO *   CLEAR     48  43  81 SE5       30.06S
OELWEIN *      CLEAR     48  45  87 S10       30.02F
WATERLOO       CLEAR     50  43  77 S6        30.00F
$$

IAZ064-065-067-068-078-180900-
   EAST CENTRAL IOWA

CITY           SKY/WX    TMP DP  RH WIND       PRES   REMARKS
DAVENPORT      CLEAR     53  41  63 S10       30.11S
IOWA CITY      PTCLDY    52  44  74 CALM      30.08F
MUSCATINE *    CLEAR     52  43  71 S7        30.09S
QUAD CITIES    CLEAR     53  40  61 S8        30.09F
$$

IAZ062-063-075>077-085>089-095>099-180900-
   SOUTHEAST IOWA

CITY           SKY/WX    TMP DP  RH WIND       PRES   REMARKS
BURLINGTON     CLEAR     52  43  71 S9        30.10F
FAIRFIELD *    CLEAR     50  43  76 S8        30.07F
FORT MADISON * CLEAR     52  45  76 S8        30.12R
KEOKUK *       CLEAR     55  43  62 S12       30.11R
OSKALOOSA *      N/A     50  45  81 S8        30.05F
OTTUMWA        CLEAR     51  44  77 S8        30.05F
WASHINGTON *   CLEAR     50  45  81 S8        30.08F
$$

ABBREVIATIONS USED IN REMARKS
   TC - TEMPERATURES IN CELSIUS
  WCI - WIND CHILL INDEX
   HX - HEAT INDEX
  VSB - VISIBILITY
$$





USA.gov is the U.S. government's official web portal to all federal, state and local government web resources and services.